TimeEST,TemperatureF,Dew PointF,Humidity,Sea Level PressureIn,VisibilityMPH,Wind Direction,Wind SpeedMPH,Gust SpeedMPH,PrecipitationIn,Events,Conditions,WindDirDegrees,DateUTC
12:00 AM,28.4,19.4,69,30.14,25.0,NNE,4.6,-,N/A,,Scattered Clouds,30,2012-11-08 05:00:00
1:00 AM,28.4,19.4,69,30.13,25.0,NNE,6.9,-,N/A,,Scattered Clouds,30,2012-11-08 06:00:00
2:00 AM,28.4,19.4,69,30.12,25.0,NNE,5.8,-,N/A,,Mostly Cloudy,20,2012-11-08 07:00:00
3:00 AM,28.4,21.2,74,30.12,25.0,NNE,6.9,-,N/A,,Mostly Cloudy,20,2012-11-08 08:00:00
4:00 AM,28.4,19.4,69,30.12,25.0,NNE,4.6,-,N/A,,Scattered Clouds,20,2012-11-08 09:00:00
5:00 AM,28.4,19.4,69,30.11,25.0,NNE,9.2,17.3,N/A,,Partly Cloudy,30,2012-11-08 10:00:00
6:00 AM,30.2,23.0,75,30.11,25.0,NE,8.1,19.6,N/A,,Partly Cloudy,40,2012-11-08 11:00:00
7:00 AM,30.2,23.0,75,30.11,40.0,NNE,9.2,-,N/A,,Mostly Cloudy,30,2012-11-08 12:00:00
8:00 AM,30.2,23.0,75,30.12,45.0,NNE,6.9,-,N/A,,Mostly Cloudy,20,2012-11-08 13:00:00
9:00 AM,33.8,23.0,65,30.12,25.0,North,10.4,-,N/A,,Mostly Cloudy,10,2012-11-08 14:00:00
10:00 AM,33.8,23.0,65,30.11,45.0,NNE,8.1,-,N/A,,Mostly Cloudy,20,2012-11-08 15:00:00
11:00 AM,37.4,24.8,60,30.10,40.0,NNE,8.1,-,N/A,,Mostly Cloudy,30,2012-11-08 16:00:00
12:00 PM,39.2,24.8,56,30.07,40.0,NE,8.1,17.3,N/A,,Mostly Cloudy,50,2012-11-08 17:00:00
1:00 PM,41.0,26.6,57,30.06,45.0,NE,6.9,-,N/A,,Scattered Clouds,40,2012-11-08 18:00:00
3:00 PM,42.8,23.0,46,30.02,35.0,NE,5.8,-,N/A,,Mostly Cloudy,40,2012-11-08 20:00:00
4:00 PM,41.0,24.8,53,30.02,35.0,ENE,4.6,-,N/A,,Mostly Cloudy,70,2012-11-08 21:00:00
5:00 PM,37.4,24.8,60,30.04,25.0,Calm,Calm,-,N/A,,Mostly Cloudy,0,2012-11-08 22:00:00
5:14 PM,35.6,23.0,60,30.04,25.0,WNW,3.5,-,N/A,,Scattered Clouds,300,2012-11-08 22:14:00
6:00 PM,35.6,23.0,60,30.05,25.0,North,4.6,-,N/A,,Scattered Clouds,350,2012-11-08 23:00:00
7:00 PM,32.0,21.2,64,30.06,25.0,North,4.6,-,N/A,,Partly Cloudy,350,2012-11-09 00:00:00
8:00 PM,30.2,21.2,69,30.06,25.0,NE,3.5,-,N/A,,Scattered Clouds,40,2012-11-09 01:00:00
9:00 PM,28.4,21.2,74,30.05,25.0,West,3.5,-,N/A,,Partly Cloudy,280,2012-11-09 02:00:00
10:00 PM,24.8,21.2,86,30.04,25.0,Calm,Calm,-,N/A,,Partly Cloudy,0,2012-11-09 03:00:00
11:00 PM,24.8,21.2,86,30.03,25.0,Calm,Calm,-,N/A,,Partly Cloudy,0,2012-11-09 04:00:00